UmKA 1 (RS40S)
1 57172U 23091G   26158.42153377  .00006487  00000-0  29748-3 0  9999
2 57172  97.5052 217.1569 0013763 148.2624 211.9443 15.20705982162529
CubeBel-2 (EU11S)
1 57175U 23091K   26158.43286500  .00012605  00000-0  45039-3 0  9998
2 57175  97.5052 221.5644 0011009 144.3731 215.8246 15.28917434162813
RS-38S
1 57189U 23091Z   26158.44002566  .00016402  00000-0  47358-3 0  9997
2 57189  97.5091 227.7323 0008712 106.7839 253.4361 15.35714822163193
SONATE-2
1 59112U 24043Q   26157.67150863  .00045896  00000-0  61269-3 0  9997
2 59112  97.5528 307.4303 0006579 232.3278 127.7381 15.57931629126253
GRBBeta
1 60237U 24128C   26157.99911237  .00004983  00000-0  34276-3 0  9996
2 60237  61.9898 252.0093 0041990 132.5865 227.8783 15.06569386104736
Curium One
1 60242U 24128H   26158.51759231  .00008380  00000-0  48290-3 0  9991
2 60242  61.9783 240.0205 0041358 128.6383 231.8427 15.12386103104995
ROBUSTA-3A
1 60243U 24128J   26157.61704686  .00009590  00000-0  56280-3 0  9998
2 60243  61.9860 245.6203 0042816 125.8059 234.7027 15.11543644104824
CatSat
1 60246U 24125J   26158.12066147  .00060059  00000-0  80546-3 0  9997
2 60246  97.2096  10.4991 0021854 215.2975 144.6835 15.57481878105829
HYPERVIEW-1G (RS66S)
1 61772U 24199AP  26158.08473461  .00128521  00000-0  92267-3 0  9991
2 61772  97.2892  37.3121 0002105 296.5346  63.5703 15.73263264133080
AO-123
1 61781U 24199AY  26158.45570644  .00008542  00000-0  24895-3 0  9995
2 61781  97.3013  27.2145 0013340 351.5689   8.5328 15.35535742132436
JINJUSat 1B
1 63210U 25052A   26158.22660270  .00017317  00000-0  54161-3 0  9992
2 63210  97.4012  54.9697 0005309 111.9001 248.2807 15.33192741 68570
NUSHSAT 1
1 63211U 25052B   26158.22089238  .00020483  00000-0  59346-3 0  9990
2 63211  97.3986  55.4960 0005122 113.6599 246.5183 15.35580915 68612
TEVEL2-4
1 63213U 25052D   26158.20467444  .00018263  00000-0  55222-3 0  9991
2 63213  97.3916  54.5829 0004366 121.8176 238.3493 15.34259808 68584
TEVEL2-5
1 63214U 25052E   26157.96315887  .00019993  00000-0  60754-3 0  9994
2 63214  97.3910  54.2903 0004302 124.6483 235.5166 15.34083480 68544
TEVEL2-6
1 63215U 25052F   26158.43185140  .00018790  00000-0  57157-3 0  9992
2 63215  97.3911  54.7443 0004415 123.4001 236.7664 15.34062695 68617
TEVEL2-1
1 63217U 25052H   26158.26177888  .00018589  00000-0  57497-3 0  9998
2 63217  97.3886  54.2098 0004076 132.8480 227.3106 15.33536764 68573
TEVEL2-3
1 63218U 25052J   26158.45251815  .00018640  00000-0  57543-3 0  9993
2 63218  97.3887  54.4214 0004203 132.9368 227.2228 15.33596595 68601
TEVEL2-2
1 63219U 25052K   26158.45789772  .00018386  00000-0  56848-3 0  9996
2 63219  97.3887  54.4083 0004125 134.0288 226.1295 15.33551437 68601
TEVEL2-9
1 63237U 25052AD  26158.22683426  .00016944  00000-0  55696-3 0  9998
2 63237  97.3947  53.5736 0006800 159.0385 201.1137 15.31593039 68509
TEVEL2-7
1 63238U 25052AE  26158.20050968  .00016768  00000-0  55614-3 0  9990
2 63238  97.3946  53.4677 0006886 160.4105 199.7402 15.31304674 68492
TEVEL2-8
1 63239U 25052AF  26158.20865697  .00016330  00000-0  54201-3 0  9990
2 63239  97.3954  53.4544 0007023 160.4305 199.7207 15.31287141 68493
SPIRONE
1 66657U 25274H   26158.07141215  .00002552  00000-0  24749-3 0  9996
2 66657  97.7478  87.5071 0013360  52.9402 307.3037 14.93501754 28717
K-HERO
1 66660U 25274L   26158.07884220  .00002740  00000-0  26235-3 0  9991
2 66660  97.7484  87.6684 0015352  56.5051 303.7633 14.93922453 28728
SNUGLITE-III DURI
1 66661U 25274M   26158.06689466  .00001967  00000-0  18961-3 0  9993
2 66661  97.7479  87.6768 0015865  56.9917 303.2825 14.93965127 28723
SAKHACUBE-CHOLBON
1 67290U 25313AU  26158.18536919  .00009548  00000-0  38819-3 0  9990
2 67290  97.3921 233.3456 0009869  39.4088 320.7866 15.24710711 24453
RS95S (QMR-KWT-2)
1 67291U 25313AV  26158.18257654  .00013945  00000-0  54346-3 0  9996
2 67291  97.3925 233.4990 0009265  38.9591 321.2314 15.26034657 24460
Ten-Koh2
1 68261U 25241B   26153.84997429  .00006883  00000-0  29609-3 0  9990
2 68261  51.6660  27.8529 0006535 101.1658 259.0055 15.23719437 12723
JACK-002
1 68417U 26067B   26157.62377191  .00008932  00000-0  42666-3 0  9993
2 68417  97.4565 116.3463 0001456  24.9807 335.1498 15.19262854 10348
DISCO 2
1 68431U 26067R   26158.49903012  .00009165  00000-0  44190-3 0  9995
2 68431  97.4597 117.1995 0003632  60.1553 300.0042 15.18926029 10476
HADES-SA (SpinnyONE)
1 68446U 26067AG  26157.61516949  .00023524  00000-0  11331-2 0  9998
2 68446  97.4429 116.0749 0009648 109.1186 251.1093 15.18701392 10320
PARUS-6U1
1 68456U 26067AS  26157.63780750  .00007472  00000-0  37676-3 0  9999
2 68456  97.4549 116.1653 0007602  98.9556 261.2538 15.17405142 10333
SAL-E
1 68458U 26067AU  26158.16225484  .00009292  00000-0  46479-3 0  9991
2 68458  97.4475 116.6239 0007862 104.5976 255.6129 15.17615688 10416
FSI-SAT 2
1 68792U 26088A   26157.66047282  .00005009  00000-0  33997-3 0  9990
2 68792  97.5062 307.1861 0015625 139.2522 220.9877 15.06749013  6706
OrigamiSat 2
1 68795U 26088D   26158.14674183  .00004366  00000-0  28312-3 0  9993
2 68795  97.5065 307.7664 0016934 112.3691 247.9334 15.08493575  6788
ARICA 2
1 68796U 26088E   26157.68006049  .00005760  00000-0  37367-3 0  9991
2 68796  97.5060 307.3068 0017209 113.0573 247.2473 15.08343551  6719
WASEDA-SAT-ZERO-II
1 68797U 26088F   26158.14147605  .00007191  00000-0  46307-3 0  9992
2 68797  97.5054 307.7634 0017080 111.4234 248.8819 15.08529179  6789
MANGARO-II-Piscus
1 68798U 26088G   26157.66873651  .00004797  00000-0  30836-3 0  9995
2 68798  97.5064 307.3264 0020628 115.7145 244.6217 15.08707923  6710
IO-86
1 40931U          25360.30710720  .00000000  00000-0  12800-3 0    00
2 40931   6.0006 332.5373 0012733 338.8432   8.1437 14.79075515    01
LILIUM-4                
1 71922C 26067AC  26089.50133053 -.00014632  00000+0 -74472-3 0    04
2 71922  97.4497  49.1617 0004341   5.9603 355.7042 15.16896692    16
